• In Austria
  • List of Countries
  • For 7 days
  • Water Temperature
  • Satellite Maps
  • Weather Map
  • News
  • Weather Widgets
  • user-avatar
    Login

    Hourly Weather Kembé

    Today, 19 November, Sunday

    Time Temperature Precipitation Wind Pressure Humidity
    00:00 +22°C° 0.2 mm 0 mps 711 mmHg 84%
    01:00 +22°C° 0 mm 0 mps 711 mmHg 86%
    02:00 +22°C° 0.4 mm 0 mps 711 mmHg 88%
    03:00 +21°C° 0.4 mm 0 mps 711 mmHg 89%
    04:00 +21°C° 0.4 mm 0 mps 711 mmHg 91%
    05:00 +22°C° 0.3 mm 0 mps 711 mmHg 89%
    06:00 +24°C° 0.3 mm 1 mps 712 mmHg 88%
    07:00 +25°C° 0 mm 1 mps 712 mmHg 88%
    08:00 +27°C° 0 mm 1 mps 712 mmHg 78%
    09:00 +29°C° 0 mm 1 mps 712 mmHg 68%
    10:00 +31°C° 0 mm 1 mps 713 mmHg 58%
    11:00 +33°C° 0 mm 1 mps 712 mmHg 53%
    12:00 +34°C° 0 mm 1 mps 712 mmHg 48%
    13:00 +34°C° 0 mm 0 mps 711 mmHg 42%
    14:00 +35°C° 0.3 mm 1 mps 711 mmHg 46%
    15:00 +33°C° 0.3 mm 1 mps 710 mmHg 50%
    16:00 +32°C° 0.3 mm 1 mps 710 mmHg 54%
    17:00 +30°C° 0.2 mm 1 mps 710 mmHg 61%
    18:00 +28°C° 0.2 mm 1 mps 710 mmHg 68%
    19:00 +27°C° 0.2 mm 1 mps 710 mmHg 75%
    20:00 +26°C° 0.2 mm 1 mps 711 mmHg 79%
    21:00 +25°C° 0.2 mm 1 mps 711 mmHg 83%
    22:00 +25°C° 0.2 mm 1 mps 711 mmHg 86%
    23:00 +24°C° 0 mm 1 mps 711 mmHg 88%

    Tomorrow, 20 November, Monday

    Time Temperature Precipitation Wind Pressure Humidity
    00:00 +24°C° 0 mm 1 mps 711 mmHg 89%
    01:00 +24°C° 0 mm 1 mps 711 mmHg 90%
    02:00 +23°C° 0.3 mm 1 mps 711 mmHg 91%
    03:00 +23°C° 0.3 mm 1 mps 711 mmHg 93%
    04:00 +23°C° 0.3 mm 1 mps 711 mmHg 94%
    05:00 +24°C° 0 mm 1 mps 711 mmHg 90%
    06:00 +25°C° 0 mm 1 mps 712 mmHg 86%
    07:00 +26°C° 0 mm 2 mps 712 mmHg 82%
    08:00 +28°C° 0 mm 1 mps 712 mmHg 72%
    09:00 +31°C° 0 mm 1 mps 713 mmHg 61%
    10:00 +34°C° 0 mm 1 mps 713 mmHg 51%
    11:00 +35°C° 0 mm 1 mps 712 mmHg 46%
    12:00 +35°C° 0 mm 0 mps 712 mmHg 41%
    13:00 +36°C° 0 mm 0 mps 711 mmHg 36%
    14:00 +34°C° 0.1 mm 0 mps 711 mmHg 44%
    15:00 +33°C° 0.1 mm 1 mps 710 mmHg 51%
    16:00 +30°C° 0.1 mm 1 mps 709 mmHg 59%
    17:00 +29°C° 0.2 mm 1 mps 710 mmHg 65%
    18:00 +28°C° 0.2 mm 1 mps 710 mmHg 71%
    19:00 +26°C° 0.2 mm 1 mps 710 mmHg 77%
    20:00 +26°C° 0.1 mm 1 mps 711 mmHg 81%
    21:00 +25°C° 0.1 mm 1 mps 711 mmHg 84%
    22:00 +25°C° 0.1 mm 1 mps 712 mmHg 87%
    23:00 +24°C° 0.1 mm 1 mps 711 mmHg 88%

    Day after tomorrow, 21 November, Tuesday

    Time Temperature Precipitation Wind Pressure Humidity
    00:00 +24°C° 0.1 mm 1 mps 711 mmHg 90%
    01:00 +24°C° 0.1 mm 1 mps 710 mmHg 92%
    02:00 +23°C° 0 mm 1 mps 710 mmHg 93%
    03:00 +23°C° 0 mm 1 mps 710 mmHg 94%
    04:00 +23°C° 0 mm 1 mps 710 mmHg 95%
    05:00 +24°C° 0 mm 1 mps 711 mmHg 91%
    06:00 +25°C° 0 mm 1 mps 711 mmHg 88%
    07:00 +26°C° 0 mm 1 mps 712 mmHg 84%
    08:00 +29°C° 0 mm 1 mps 712 mmHg 71%
    09:00 +32°C° 0 mm 1 mps 712 mmHg 58%
    10:00 +35°C° 0 mm 1 mps 713 mmHg 46%
    11:00 +35°C° 0 mm 1 mps 712 mmHg 42%
    12:00 +36°C° 0 mm 1 mps 711 mmHg 39%
    13:00 +36°C° 0 mm 1 mps 710 mmHg 35%
    14:00 +35°C° 0 mm 1 mps 709 mmHg 40%
    15:00 +34°C° 0 mm 1 mps 709 mmHg 44%
    16:00 +33°C° 0 mm 1 mps 708 mmHg 49%
    17:00 +31°C° 0 mm 1 mps 709 mmHg 53%
    18:00 +27°C° 0 mm 0 mps 709 mmHg 57%
    19:00 +26°C° 0 mm 0 mps 710 mmHg 60%
    20:00 +25°C° 0 mm 0 mps 710 mmHg 62%
    21:00 +27°C° 0 mm 1 mps 710 mmHg 64%
    22:00 +26°C° 0 mm 1 mps 711 mmHg 66%
    23:00 +25°C° 0 mm 1 mps 710 mmHg 71%

    22 November, Wednesday

    Time Temperature Precipitation Wind Pressure Humidity
    00:00 +25°C° 0 mm 1 mps 710 mmHg 75%
    01:00 +24°C° 0 mm 1 mps 710 mmHg 80%
    02:00 +24°C° 0 mm 1 mps 710 mmHg 83%
    03:00 +21°C° 0 mm 0 mps 710 mmHg 86%
    04:00 +21°C° 0 mm 0 mps 709 mmHg 88%
    05:00 +22°C° 0 mm 0 mps 710 mmHg 84%
    06:00 +23°C° 0 mm 0 mps 711 mmHg 79%
    07:00 +25°C° 0 mm 0 mps 712 mmHg 74%
    08:00 +29°C° 0 mm 1 mps 712 mmHg 64%
    09:00 +32°C° 0 mm 1 mps 713 mmHg 54%
    10:00 +35°C° 0 mm 1 mps 713 mmHg 44%
    11:00 +36°C° 0 mm 1 mps 712 mmHg 40%
    12:00 +37°C° 0 mm 1 mps 711 mmHg 36%
    13:00 +36°C° 0 mm 0 mps 710 mmHg 32%
    14:00 +35°C° 0 mm 0 mps 710 mmHg 35%
    15:00 +35°C° 0 mm 1 mps 709 mmHg 39%
    16:00 +34°C° 0 mm 1 mps 709 mmHg 42%
    17:00 +32°C° 0 mm 1 mps 709 mmHg 48%
    18:00 +30°C° 0 mm 1 mps 710 mmHg 54%
    19:00 +28°C° 0 mm 1 mps 710 mmHg 60%
    20:00 +25°C° 0 mm 0 mps 710 mmHg 63%
    21:00 +24°C° 0 mm 0 mps 710 mmHg 66%
    22:00 +23°C° 0 mm 0 mps 710 mmHg 69%
    23:00 +23°C° 0 mm 0 mps 710 mmHg 72%

    23 November, Thursday

    Time Temperature Precipitation Wind Pressure Humidity
    00:00 +22°C° 0 mm 0 mps 710 mmHg 75%
    01:00 +24°C° 0 mm 1 mps 709 mmHg 77%
    02:00 +23°C° 0 mm 1 mps 710 mmHg 81%
    03:00 +23°C° 0 mm 1 mps 710 mmHg 85%
    04:00 +23°C° 0 mm 1 mps 710 mmHg 89%
    05:00 +22°C° 0.1 mm 0 mps 711 mmHg 84%
    06:00 +23°C° 0.1 mm 0 mps 712 mmHg 79%
    07:00 +25°C° 0.1 mm 0 mps 713 mmHg 75%
    08:00 +27°C° 0 mm 0 mps 713 mmHg 66%
    09:00 +31°C° 0 mm 1 mps 713 mmHg 57%
    10:00 +34°C° 0 mm 1 mps 713 mmHg 48%
    11:00 +35°C° 0 mm 1 mps 712 mmHg 43%
    12:00 +36°C° 0 mm 1 mps 711 mmHg 37%
    13:00 +39°C° 0 mm 1 mps 710 mmHg 31%
    14:00 +36°C° 0 mm 1 mps 710 mmHg 34%
    15:00 +35°C° 0 mm 1 mps 710 mmHg 37%
    16:00 +34°C° 0 mm 1 mps 709 mmHg 40%
    17:00 +32°C° 0 mm 1 mps 710 mmHg 46%
    18:00 +30°C° 0 mm 1 mps 710 mmHg 51%
    19:00 +28°C° 0 mm 1 mps 710 mmHg 57%
    20:00 +25°C° 0 mm 0 mps 711 mmHg 60%
    21:00 +24°C° 0 mm 0 mps 711 mmHg 63%
    22:00 +24°C° 0 mm 0 mps 711 mmHg 67%
    23:00 +23°C° 0 mm 0 mps 711 mmHg 70%

    24 November, Friday

    Time Temperature Precipitation Wind Pressure Humidity
    00:00 +23°C° 0 mm 0 mps 710 mmHg 72%
    01:00 +24°C° 0 mm 1 mps 710 mmHg 75%
    02:00 +22°C° 0 mm 0 mps 710 mmHg 78%
    03:00 +22°C° 0 mm 0 mps 710 mmHg 80%
    04:00 +21°C° 0 mm 0 mps 711 mmHg 83%
    05:00 +22°C° 0 mm 0 mps 711 mmHg 78%
    06:00 +24°C° 0 mm 0 mps 712 mmHg 74%
    07:00 +25°C° 0 mm 0 mps 713 mmHg 70%
    08:00 +28°C° 0 mm 0 mps 713 mmHg 61%
    09:00 +30°C° 0 mm 0 mps 713 mmHg 52%
    10:00 +35°C° 0 mm 1 mps 713 mmHg 43%
    11:00 +36°C° 0 mm 1 mps 712 mmHg 39%
    12:00 +37°C° 0 mm 1 mps 711 mmHg 35%
    13:00 +37°C° 0 mm 1 mps 710 mmHg 30%
    14:00 +36°C° 0 mm 1 mps 710 mmHg 32%
    15:00 +35°C° 0 mm 1 mps 710 mmHg 34%
    16:00 +34°C° 0 mm 1 mps 710 mmHg 36%
    17:00 +32°C° 0 mm 1 mps 710 mmHg 43%
    18:00 +30°C° 0 mm 1 mps 710 mmHg 50%
    19:00 +27°C° 0 mm 1 mps 711 mmHg 56%
    20:00 +27°C° 0 mm 1 mps 711 mmHg 61%
    21:00 +26°C° 0 mm 1 mps 711 mmHg 66%
    22:00 +23°C° 0 mm 0 mps 711 mmHg 71%
    23:00 +23°C° 0 mm 0 mps 711 mmHg 74%
    Show more